Regional Weather Roundup
Issued by NWS

Home | Current Version | Previous Version | Text Only | Print | Product List | Glossary On
Versions: 1 2 3 4 5 6 7 8 9 10 11 12 13 14 15 16 17 18 19 20 21 22 23 24 25 26 27 28 29 30 31 32 33 34 35 36 37 38 39 40 41 42 43 44 45 46 47 48 49 50
000
ASCA44 KEWX 280720
RWRMX

LATIN AMERICA AND CARIBBEAN REGIONAL WEATHER ROUNDUP
NATIONAL WEATHER SERVICE AUSTIN/SAN ANTONIO TX
200 AM CDT TUE APR 28 2015

NOTE: "FAIR" INDICATED FEW OR NO CLOUDS BELOW 12,000 FEET WITH NO
SIGNIFICANT WEATHER AND/OR OBSTRUCTIONS TO VISIBILITY.

BAJA CALIFORNIA

CITY           SKY/WX    TMP DP  RH WIND       PRES   REMARKS
LA PAZ           N/A    N/A N/A N/A MISG        N/A
TIJUANA        CLEAR     63  37  39 N6        30.00S

NORTHWESTERN MEXICO

CITY           SKY/WX    TMP DP  RH WIND       PRES   REMARKS
HERMOSILLO     CLEAR     72  39  30 S3        29.90R

NORTHEASTERN MEXICO

CITY           SKY/WX    TMP DP  RH WIND       PRES   REMARKS
MONTERREY      CLEAR     61  54  77 W7        29.85R
REYNOSA        PTCLDY    68  55  64 NW6       29.77S
CD. VICTORIA   MOCLDY    68  54  60 CALM      29.81S

WESTERN MEXICO

CITY           SKY/WX    TMP DP  RH WIND       PRES   REMARKS
DEL BAJIO      MOCLDY    68  50  52 CALM      30.20F
GUADALAJARA    MOCLDY    68  54  60 NW3       30.11S
MAZATLAN       CLEAR     57  52  82 N8        29.86F
P. VALLARTA    CLOUDY    72  68  88 NE2       29.86S

CENTRAL MEXICO

CITY           SKY/WX    TMP DP  RH WIND       PRES   REMARKS
MEXICO CITY    MOCLDY    66  37  34 S5        30.22F
QUERETARO      MOCLDY    68  43  40 NW9       30.18F
S. LUIS POTOSI MOCLDY    70  39  32 W12       30.09F
TOLUCA         PTCLDY    52  34  50 CALM      30.31F

SOUTHERN MEXICO

CITY           SKY/WX    TMP DP  RH WIND       PRES   REMARKS
ACAPULCO       CLEAR     79  75  89 W5        29.80F

YUCATAN PENINSULA

CITY           SKY/WX    TMP DP  RH WIND       PRES   REMARKS
CANCUN         PTCLDY    81  79  94 SE14      29.71F
COZUMEL        PTCLDY    77  75  94 SE12      29.72F
MERIDA         CLEAR     84  70  61 E7        29.67F
TAPACHULA      PTCLDY    81  79  94 CALM      29.82F

CENTRAL AMERICA

CITY           SKY/WX    TMP DP  RH WIND       PRES   REMARKS

CARIBBEAN

CITY           SKY/WX    TMP DP  RH WIND       PRES   REMARKS
ARUBA          PTCLDY    81  75  83 E10       29.77F
CURACAO          N/A     79  73  83 SE12      29.80F
KINGSTON       PTCLDY    82  73  74 E5        29.80S
NASSAU         MOCLDY    82  73  74 VRB1      29.83F
SAN JUAN       PTCLDY    81  73  78 VRB3      29.90F
SANTO DOMINGO  PTCLDY    77  73  88 SE5       29.89
ST. CROIX      PTCLDY    79  73  83 SE6       29.92
ST. MAARTEN    PTCLDY    81  75  83 SE5       29.92S
ST. THOMAS     CLEAR     81  73  78 SE10      29.91

$$



USA.gov is the U.S. government's official web portal to all federal, state and local government web resources and services.